This demonstration page uses our WeatherBlox Daily Observations layout. Learn more.

Left ArrowRight Arrow

Hourly Observations for December 21, 2021

Temp ( °F °C ) Dew Point ( °F °C ) Humidity (%) Winds ( mph kmh ) Pressure ( in mb ) Visibility ( mi km ) Precip ( " mm )
12:56 am 00:56 Clear 19 -7 11 -11.7 69 69 Calm 30.22 1023 10 16 0.00 0.00
1:56 am 01:56 Clear 19 -7.5 10 -12 70 70 Calm 30.19 1022 10 16 0.00 0.00
2:56 am 02:56 Clear 18 -7.9 10 -12.1 72 72 Calm 30.16 1021 10 16 0.00 0.00
3:56 am 03:56 Clear 17 -8.3 11 -11.5 78 78 S 5 7 30.11 1020 10 16 0.00 0.00
4:56 am 04:56 Clear 18 -7.9 10 -12.3 71 71 SSW 3 6 30.08 1019 10 16 0.00 0.00
5:56 am 05:56 Clear 18 -7.9 9 -12.6 69 69 S 8 13 30.06 1018 10 16 0.00 0.00
6:56 am 06:56 Clear 19 -7.3 10 -12 69 69 S 12 19 30.01 1016 10 16 0.00 0.00
7:56 am 07:56 Sunny 20 -6.4 11 -11.5 67 67 SSW 9 15 30.04 1017 10 16 0.00 0.00
8:56 am 08:56 undefined 22 -5.5 13 -10.3 69 69 SW 7 11 30.02 1017 10 16 0.00 0.00
9:56 am 09:56 Partly Cloudy 28 -2.2 16 -8.7 61 61 W 7 11 30.03 1017 10 16 0.00 0.00
10:56 am 10:56 undefined 35 1.4 18 -7.6 52 52 W 12 19 30.01 1016 10 16 0.00 0.00
11:56 am 11:56 Mostly Sunny 38 3.4 22 -5.8 51 51 NW 13 20 29.99 1016 10 16 0.00 0.00
12:56 pm 12:56 Sunny 41 5.2 23 -5.2 47 47 NW 14 22 29.98 1015 10 16 0.00 0.00
1:56 pm 13:56 Sunny 46 7.6 22 -5.8 38 38 NW 10 17 29.97 1015 10 16 0.00 0.00
2:56 pm 14:56 Sunny 46 7.5 13 -10.3 27 27 NNW 17 28 30.01 1016 9 14 0.00 0.00
3:56 pm 15:56 Sunny 43 6.2 12 -11 28 28 N 18 30 30.04 1017 10 16 0.00 0.00
4:56 pm 16:56 Sunny 39 4.1 6 -14.7 24 24 NW 13 20 30.06 1018 10 16 0.00 0.00
6:56 pm 18:56 undefined 33 0.8 12 -11.3 40 40 NNW 6 9 30.09 1019 10 16 0.00 0.00
7:56 pm 19:56 Clear 31 -0.6 13 -10.3 48 48 N 6 9 30.12 1020 10 16 0.00 0.00
8:56 pm 20:56 Clear 28 -2.1 13 -10.6 53 53 WNW 7 11 30.13 1020 10 16 0.00 0.00
9:56 pm 21:56 Clear 27 -3 12 -11 54 54 Calm 30.11 1020 10 16 0.00 0.00
10:56 pm 22:56 Clear 25 -4.1 13 -10.3 62 62 Calm 30.10 1019 10 16 0.00 0.00
11:56 pm 23:56 Clear 21 -5.9 13 -10.3 71 71 Calm 30.10 1019 10 16 0.00 0.00

Powered by AerisWeather